When you browse on this site, cookies collect data to enhance your experience and personalize the content and advertising you see.
Visit our Privacy Policy to learn more. By continuing to use the site, you agree to this use of cookies and data.
  • En España
  • Lista de países
  • Para 7 días
  • Temperatura del agua
  • Mapa Satelital
  • El tiempo en el mapa
  • Informadores
  • user-avatar
    Iniciar sesión

    Tiempo cada hora Mendoza

    Hoy, 18 Junio, Martes

    Tiempo Temperatura Precipitaciones Viento Presión Humedad
    00:00 +7°C° 0 mm 1 mps 700 mmHg 45%
    01:00 +6°C° 0 mm 2 mps 701 mmHg 43%
    02:00 +6°C° 0 mm 2 mps 701 mmHg 43%
    03:00 +6°C° 0 mm 2 mps 700 mmHg 42%
    04:00 +5°C° 0 mm 2 mps 700 mmHg 42%
    05:00 +5°C° 0 mm 2 mps 701 mmHg 41%
    06:00 +4°C° 0 mm 3 mps 701 mmHg 39%
    07:00 +4°C° 0 mm 3 mps 701 mmHg 38%
    08:00 +7°C° 0 mm 3 mps 701 mmHg 33%
    09:00 +9°C° 0 mm 2 mps 701 mmHg 29%
    10:00 +12°C° 0 mm 2 mps 701 mmHg 24%
    11:00 +13°C° 0 mm 2 mps 700 mmHg 23%
    12:00 +13°C° 0 mm 2 mps 700 mmHg 21%
    13:00 +14°C° 0 mm 1 mps 699 mmHg 20%
    14:00 +14°C° 0 mm 1 mps 699 mmHg 22%
    15:00 +13°C° 0 mm 1 mps 699 mmHg 24%
    16:00 +13°C° 0 mm 1 mps 699 mmHg 26%
    17:00 +12°C° 0 mm 1 mps 699 mmHg 26%
    18:00 +11°C° 0 mm 1 mps 700 mmHg 26%
    19:00 +10°C° 0 mm 1 mps 700 mmHg 26%
    20:00 +10°C° 0 mm 1 mps 700 mmHg 25%
    21:00 +9°C° 0 mm 2 mps 700 mmHg 25%
    22:00 +9°C° 0 mm 2 mps 700 mmHg 24%
    23:00 +8°C° 0 mm 2 mps 700 mmHg 26%

    Mañana, 19 Junio, Miércoles

    Tiempo Temperatura Precipitaciones Viento Presión Humedad
    00:00 +9°C° 0 mm 1 mps 700 mmHg 28%
    01:00 +8°C° 0 mm 1 mps 700 mmHg 30%
    02:00 +8°C° 0 mm 1 mps 700 mmHg 32%
    03:00 +7°C° 0 mm 1 mps 700 mmHg 33%
    04:00 +7°C° 0 mm 1 mps 700 mmHg 35%
    05:00 +7°C° 0 mm 1 mps 700 mmHg 35%
    06:00 +7°C° 0 mm 1 mps 700 mmHg 35%
    07:00 +6°C° 0 mm 0 mps 700 mmHg 35%
    08:00 +9°C° 0 mm 1 mps 701 mmHg 31%
    09:00 +11°C° 0 mm 1 mps 701 mmHg 27%
    10:00 +13°C° 0 mm 1 mps 702 mmHg 24%
    11:00 +14°C° 0 mm 1 mps 701 mmHg 23%
    12:00 +15°C° 0 mm 1 mps 701 mmHg 23%
    13:00 +16°C° 0 mm 1 mps 700 mmHg 22%
    14:00 +15°C° 0 mm 1 mps 700 mmHg 25%
    15:00 +15°C° 0 mm 1 mps 700 mmHg 28%
    16:00 +13°C° 0 mm 0 mps 700 mmHg 30%
    17:00 +13°C° 0 mm 1 mps 700 mmHg 31%
    18:00 +12°C° 0 mm 1 mps 700 mmHg 31%
    19:00 +11°C° 0 mm 1 mps 700 mmHg 31%
    20:00 +11°C° 0 mm 1 mps 700 mmHg 31%
    21:00 +10°C° 0 mm 1 mps 700 mmHg 32%
    22:00 +10°C° 0 mm 1 mps 700 mmHg 32%
    23:00 +10°C° 0 mm 1 mps 699 mmHg 32%

    Pasado mañana, 20 Junio, Jueves

    Tiempo Temperatura Precipitaciones Viento Presión Humedad
    00:00 +9°C° 0 mm 1 mps 699 mmHg 32%
    01:00 +9°C° 0 mm 1 mps 699 mmHg 32%
    02:00 +9°C° 0 mm 1 mps 698 mmHg 35%
    03:00 +9°C° 0 mm 1 mps 698 mmHg 37%
    04:00 +8°C° 0 mm 1 mps 698 mmHg 39%
    05:00 +8°C° 0 mm 1 mps 698 mmHg 40%
    06:00 +8°C° 0 mm 1 mps 698 mmHg 40%
    07:00 +8°C° 0 mm 1 mps 698 mmHg 40%
    08:00 +10°C° 0 mm 1 mps 698 mmHg 37%
    09:00 +12°C° 0 mm 1 mps 698 mmHg 33%
    10:00 +14°C° 0 mm 1 mps 698 mmHg 30%
    11:00 +15°C° 0 mm 1 mps 698 mmHg 28%
    12:00 +16°C° 0 mm 1 mps 697 mmHg 26%
    13:00 +17°C° 0 mm 2 mps 697 mmHg 24%
    14:00 +18°C° 0 mm 1 mps 696 mmHg 26%
    15:00 +16°C° 0 mm 1 mps 696 mmHg 27%
    16:00 +16°C° 0 mm 1 mps 696 mmHg 29%
    17:00 +15°C° 0 mm 1 mps 696 mmHg 29%
    18:00 +14°C° 0 mm 2 mps 696 mmHg 29%
    19:00 +13°C° 0 mm 2 mps 696 mmHg 29%
    20:00 +13°C° 0 mm 2 mps 696 mmHg 31%
    21:00 +13°C° 0 mm 2 mps 696 mmHg 32%
    22:00 +12°C° 0 mm 2 mps 696 mmHg 33%
    23:00 +12°C° 0 mm 2 mps 696 mmHg 35%

    21 Junio, Viernes

    Tiempo Temperatura Precipitaciones Viento Presión Humedad
    00:00 +12°C° 0 mm 2 mps 695 mmHg 38%
    01:00 +10°C° 0 mm 2 mps 695 mmHg 40%
    02:00 +11°C° 0 mm 1 mps 695 mmHg 44%
    03:00 +10°C° 0 mm 1 mps 695 mmHg 47%
    04:00 +10°C° 0 mm 1 mps 695 mmHg 50%
    05:00 +10°C° 0 mm 1 mps 695 mmHg 51%
    06:00 +9°C° 0 mm 1 mps 696 mmHg 52%
    07:00 +9°C° 0 mm 1 mps 696 mmHg 53%
    08:00 +12°C° 0 mm 1 mps 697 mmHg 45%
    09:00 +15°C° 0 mm 1 mps 698 mmHg 37%
    10:00 +18°C° 0 mm 1 mps 698 mmHg 29%
    11:00 +18°C° 0 mm 2 mps 698 mmHg 28%
    12:00 +19°C° 0 mm 2 mps 698 mmHg 27%
    13:00 +19°C° 0 mm 2 mps 697 mmHg 26%
    14:00 +19°C° 0 mm 2 mps 697 mmHg 30%
    15:00 +18°C° 0 mm 2 mps 697 mmHg 34%
    16:00 +18°C° 0 mm 1 mps 697 mmHg 37%
    17:00 +16°C° 0 mm 1 mps 697 mmHg 42%
    18:00 +15°C° 0 mm 1 mps 697 mmHg 47%
    19:00 +13°C° 0 mm 1 mps 697 mmHg 51%
    20:00 +12°C° 0 mm 0 mps 698 mmHg 53%
    21:00 +11°C° 0 mm 0 mps 698 mmHg 54%
    22:00 +11°C° 0 mm 0 mps 698 mmHg 55%
    23:00 +10°C° 0 mm 0 mps 698 mmHg 57%

    22 Junio, Sábado

    Tiempo Temperatura Precipitaciones Viento Presión Humedad
    00:00 +10°C° 0 mm 0 mps 698 mmHg 59%
    01:00 +11°C° 0 mm 1 mps 697 mmHg 61%
    02:00 +10°C° 0 mm 1 mps 697 mmHg 61%
    03:00 +10°C° 0 mm 1 mps 697 mmHg 61%
    04:00 +10°C° 0 mm 1 mps 697 mmHg 61%
    05:00 +10°C° 0 mm 1 mps 697 mmHg 61%
    06:00 +10°C° 0 mm 1 mps 697 mmHg 61%
    07:00 +10°C° 0 mm 1 mps 698 mmHg 60%
    08:00 +12°C° 0 mm 1 mps 698 mmHg 53%
    09:00 +14°C° 0 mm 1 mps 699 mmHg 47%
    10:00 +18°C° 0 mm 1 mps 699 mmHg 40%
    11:00 +18°C° 0 mm 1 mps 699 mmHg 38%
    12:00 +19°C° 0 mm 1 mps 698 mmHg 37%
    13:00 +19°C° 0 mm 1 mps 698 mmHg 36%
    14:00 +19°C° 0 mm 1 mps 698 mmHg 37%
    15:00 +19°C° 0 mm 1 mps 698 mmHg 39%
    16:00 +18°C° 0 mm 1 mps 698 mmHg 41%
    17:00 +16°C° 0 mm 1 mps 698 mmHg 46%
    18:00 +15°C° 0 mm 1 mps 698 mmHg 52%
    19:00 +14°C° 0 mm 1 mps 698 mmHg 57%
    20:00 +13°C° 0 mm 1 mps 698 mmHg 61%
    21:00 +13°C° 0 mm 1 mps 698 mmHg 64%
    22:00 +12°C° 0 mm 1 mps 698 mmHg 67%
    23:00 +12°C° 0 mm 1 mps 697 mmHg 69%

    23 Junio, Domingo

    Tiempo Temperatura Precipitaciones Viento Presión Humedad
    00:00 +12°C° 0 mm 1 mps 697 mmHg 70%
    01:00 +12°C° 0 mm 1 mps 696 mmHg 72%
    02:00 +11°C° 0 mm 1 mps 696 mmHg 75%
    03:00 +11°C° 0 mm 1 mps 695 mmHg 78%
    04:00 +11°C° 0 mm 1 mps 695 mmHg 81%
    05:00 +11°C° 0 mm 1 mps 695 mmHg 81%
    06:00 +10°C° 0 mm 1 mps 695 mmHg 82%
    07:00 +10°C° 0 mm 1 mps 694 mmHg 83%
    08:00 +12°C° 0 mm 1 mps 695 mmHg 77%
    09:00 +14°C° 0 mm 1 mps 695 mmHg 71%
    10:00 +15°C° 0 mm 1 mps 695 mmHg 65%
    11:00 +16°C° 0 mm 1 mps 694 mmHg 60%
    12:00 +17°C° 0 mm 2 mps 693 mmHg 55%
    13:00 +18°C° 0 mm 2 mps 693 mmHg 50%
    14:00 +18°C° 0 mm 2 mps 693 mmHg 49%
    15:00 +18°C° 0 mm 2 mps 693 mmHg 49%
    16:00 +18°C° 0 mm 2 mps 693 mmHg 48%
    17:00 +17°C° 0 mm 2 mps 693 mmHg 52%
    18:00 +15°C° 0 mm 2 mps 693 mmHg 56%
    19:00 +14°C° 0 mm 1 mps 693 mmHg 61%
    20:00 +14°C° 0 mm 1 mps 693 mmHg 61%
    21:00 +13°C° 0 mm 1 mps 692 mmHg 62%
    22:00 +13°C° 0 mm 1 mps 692 mmHg 63%
    23:00 +13°C° 0 mm 1 mps 692 mmHg 64%
    Mostrar más